Temp
-8 -9 -8 -8 -8 -8 -8 -9 -9 -9 -9 -9 -10 -10 -10 -10 -10 -11 -11 -11 -11 -11 -12 -12 -12 -12 -12 -12 -12 -12 -12 -12 -12 -12 -12 -12 -12 -12 -11 -11 -11 -11 -11
-9 -9 -8 -8 -8 -9 -9 -9 -9 -9 -9 -10 -10 -10 -10 -10 -11 -11 -12 -12 -12 -12 -12 -12 -12 -12 -12 -12 -12 -12 -12 -12 -12 -12 -12 -12 -12 -12 -12 -12 -12 -12 -12
-9 -9 -9 -9 -9 -9 -9 -9 -9 -9 -10 -10 -10 -10 -11 -11 -11 -12 -12 -13 -13 -13 -13 -13 -13 -13 -13 -13 -13 -13 -13 -13 -13 -12 -12 -12 -12 -12 -12 -12 -12 -12 -12
-9 -9 -9 -9 -9 -9 -9 -9 -10 -10 -10 -11 -11 -11 -11 -12 -12 -13 -13 -13 -13 -13 -13 -13 -13 -13 -13 -13 -13 -13 -13 -12 -13 -10 -12 -13 -13 -13 -13 -12 -13 -13 -12
-9 -9 -9 -9 -9 -9 -10 -10 -10 -11 -11 -11 -11 -11 -12 -13 -14 -14 -14 -14 -14 -14 -14 -14 -14 -14 -14 -14 -14 -14 -14 -13 -13 -13 -12 -13 -13 -13 -14 -14 -14 -14 -13
-9 -9 -9 -9 -9 -10 -10 -10 -11 -11 -11 -11 -11 -12 -12 -14 -14 -14 -14 -14 -14 -14 -14 -14 -14 -14 -14 -14 -14 -15 -15 -15 -15 -14 -13 -13 -14 -13 -14 -14 -14 -14 -14
-9 -9 -9 -10 -10 -10 -10 -11 -11 -11 -11 -11 -12 -12 -14 -15 -15 -15 -14 -14 -14 -14 -14 -15 -15 -15 -15 -15 -15 -15 -16 -16 -15 -14 -14 -14 -14 -14 -14 -14 -14 -14 -14
-9 -9 -10 -10 -10 -10 -11 -11 -11 -11 -11 -12 -12 -13 -14 -15 -15 -15 -15 -15 -15 -15 -14 -14 -14 -15 -15 -15 -16 -16 -16 -15 -15 -15 -14 -14 -14 -14 -15 -14 -14 -14 -15
-10 -10 -10 -10 -10 -11 -11 -11 -11 -11 -12 -13 -13 -14 -15 -15 -15 -15 -15 -15 -15 -15 -15 -15 -14 -14 -14 -15 -15 -16 -15 -15 -15 -15 -15 -15 -16 -16 -16 -15 -16 -15 -16
-10 -10 -10 -10 -10 -11 -11 -12 -12 -12 -12 -13 -14 -15 -15 -16 -16 -16 -16 -16 -16 -16 -15 -15 -15 -15 -15 -15 -15 -15 -16 -15 -15 -15 -15 -15 -15 -15 -15 -14 -15 -14 -14
-10 -10 -10 -10 -11 -11 -12 -12 -12 -12 -13 -14 -14 -15 -16 -16 -17 -17 -16 -16 -16 -16 -16 -16 -16 -15 -15 -15 -15 -16 -16 -16 -15 -15 -15 -15 -15 -15 -15 -15 -15 -15 -15
-10 -10 -10 -11 -11 -12 -12 -12 -12 -13 -14 -14 -15 -16 -16 -17 -17 -17 -17 -17 -17 -16 -16 -16 -16 -16 -16 -16 -16 -16 -16 -16 -16 -16 -16 -16 -16 -15 -15 -15 -15 -15 -15
-10 -11 -11 -11 -11 -12 -12 -12 -13 -13 -14 -15 -15 -16 -17 -17 -17 -17 -18 -18 -18 -17 -17 -17 -17 -17 -17 -17 -17 -16 -16 -16 -16 -16 -16 -16 -16 -16 -16 -16 -16 -15 -15
-11 -11 -11 -11 -11 -12 -12 -13 -13 -14 -15 -15 -16 -16 -17 -17 -17 -17 -18 -18 -18 -18 -18 -18 -18 -18 -18 -18 -17 -17 -17 -17 -17 -17 -17 -16 -16 -16 -16 -16 -16 -16 -16
-11 -11 -11 -11 -12 -12 -12 -13 -14 -14 -15 -16 -16 -16 -17 -17 -17 -18 -18 -18 -18 -19 -19 -19 -18 -18 -18 -18 -18 -17 -17 -17 -17 -17 -17 -17 -17 -17 -17 -17 -17 -16 -16
-11 -11 -11 -12 -12 -12 -13 -13 -14 -15 -15 -15 -16 -17 -17 -18 -18 -18 -18 -18 -19 -19 -19 -19 -19 -18 -18 -18 -18 -18 -18 -18 -18 -17 -18 -18 -18 -17 -17 -17 -17 -17 -16
-12 -12 -12 -12 -12 -13 -13 -14 -15 -15 -15 -16 -16 -17 -18 -18 -18 -19 -19 -19 -19 -19 -19 -19 -19 -19 -18 -19 -19 -19 -18 -18 -18 -18 -18 -18 -18 -18 -18 -18 -18 -18 -17
-12 -12 -12 -12 -13 -13 -13 -14 -15 -15 -15 -16 -16 -17 -18 -18 -18 -18 -19 -19 -19 -19 -19 -19 -19 -19 -19 -19 -19 -19 -19 -19 -19 -19 -19 -19 -19 -18 -18 -18 -18 -18 -18
-12 -12 -12 -13 -13 -13 -14 -14 -15 -15 -16 -16 -17 -18 -18 -18 -19 -19 -19 -19 -19 -19 -19 -19 -19 -19 -19 -19 -19 -19 -19 -19 -19 -19 -19 -19 -19 -19 -20 -19 -19 -20 -19
-12 -12 -13 -13 -13 -13 -14 -15 -15 -16 -16 -16 -17 -18 -18 -18 -19 -19 -19 -19 -19 -19 -19 -20 -19 -19 -19 -19 -19 -19 -20 -19 -20 -20 -21 -21 -21 -21 -20 -20 -20 -20 -20
-12 -13 -13 -13 -13 -14 -14 -15 -15 -16 -16 -17 -17 -18 -19 -19 -19 -20 -20 -19 -19 -20 -20 -20 -20 -20 -20 -20 -20 -20 -20 -20 -21 -22 -22 -21 -21 -20 -20 -20 -20 -20 -19
-13 -13 -12 -13 -13 -14 -14 -15 -15 -16 -17 -17 -18 -19 -19 -20 -20 -20 -20 -20 -20 -20 -19 -20 -20 -20 -20 -20 -20 -20 -21 -21 -22 -22 -21 -21 -21 -20 -20 -20 -20 -20 -20
-13 -13 -13 -13 -14 -14 -14 -15 -15 -16 -17 -18 -19 -19 -20 -20 -20 -20 -20 -20 -20 -20 -20 -21 -21 -21 -21 -21 -21 -22 -22 -22 -22 -22 -22 -21 -21 -21 -21 -21 -21 -21 -21
-13 -13 -13 -13 -14 -14 -14 -15 -15 -16 -17 -18 -19 -20 -20 -20 -20 -20 -21 -21 -21 -21 -21 -21 -21 -22 -22 -22 -22 -23 -23 -23 -22 -22 -22 -21 -21 -21 -21 -21 -21 -21 -21
-13 -13 -13 -14 -14 -14 -15 -15 -16 -17 -18 -18 -19 -19 -20 -20 -20 -20 -21 -21 -21 -21 -22 -22 -22 -23 -23 -23 -23 -24 -24 -23 -23 -22 -21 -21 -22 -21 -21 -21 -21 -21 -21
-13 -13 -13 -14 -14 -15 -15 -16 -16 -17 -18 -18 -19 -19 -20 -20 -20 -21 -21 -21 -22 -22 -23 -23 -23 -24 -24 -24 -25 -24 -24 -24 -23 -23 -22 -21 -21 -22 -21 -21 -21 -21 -21
Height
5861 5857 5854 5852 5848 5844 5841 5838 5834 5830 5825 5822 5818 5814 5810 5806 5802 5797 5794 5792 5789 5786 5783 5781 5781 5781 5780 5780 5781 5782 5782 5783 5786 5788 5790 5793 5795 5798 5800 5803 5806 5809 5813
5856 5854 5851 5847 5844 5840 5836 5832 5828 5823 5818 5815 5810 5806 5802 5797 5793 5788 5785 5782 5779 5777 5773 5771 5770 5769 5769 5770 5770 5770 5771 5772 5773 5774 5776 5779 5782 5786 5789 5792 5795 5798 5801
5852 5850 5847 5843 5839 5835 5831 5826 5821 5816 5812 5808 5803 5798 5793 5788 5784 5780 5777 5774 5771 5768 5765 5761 5759 5758 5758 5760 5760 5760 5760 5760 5759 5757 5760 5764 5768 5772 5776 5779 5783 5786 5790
5848 5844 5843 5838 5835 5829 5825 5820 5815 5810 5804 5800 5794 5789 5783 5779 5774 5771 5769 5766 5763 5759 5757 5755 5751 5749 5749 5749 5749 5749 5749 5745 5750 5745 5744 5748 5754 5757 5761 5764 5768 5773 5777
5844 5839 5838 5833 5829 5824 5818 5813 5808 5803 5797 5793 5787 5780 5775 5771 5766 5764 5762 5760 5757 5753 5750 5748 5745 5741 5740 5741 5740 5739 5741 5739 5741 5739 5731 5736 5738 5745 5746 5751 5755 5758 5763
5840 5836 5834 5828 5823 5818 5812 5807 5802 5797 5791 5785 5779 5772 5766 5763 5760 5757 5755 5754 5751 5747 5745 5742 5739 5736 5734 5732 5731 5731 5726 5728 5730 5723 5726 5722 5732 5730 5734 5737 5742 5746 5749
5834 5832 5829 5824 5817 5812 5806 5801 5796 5791 5783 5777 5770 5764 5759 5756 5753 5750 5748 5746 5744 5743 5740 5738 5735 5731 5729 5726 5724 5723 5719 5720 5719 5720 5720 5720 5721 5726 5727 5730 5732 5736 5738
5830 5827 5823 5818 5812 5805 5800 5795 5790 5785 5778 5770 5763 5757 5752 5749 5748 5743 5740 5740 5738 5736 5734 5732 5730 5730 5727 5723 5719 5715 5712 5710 5712 5714 5714 5716 5715 5715 5718 5720 5723 5725 5728
5825 5822 5818 5812 5806 5799 5794 5789 5783 5778 5771 5764 5757 5752 5747 5742 5740 5737 5734 5733 5732 5730 5726 5724 5722 5721 5719 5718 5715 5712 5708 5708 5706 5706 5706 5706 5706 5708 5709 5710 5712 5715 5717
5822 5817 5812 5806 5800 5796 5790 5784 5777 5771 5764 5757 5751 5746 5741 5736 5733 5730 5728 5726 5724 5722 5720 5718 5715 5714 5711 5708 5706 5705 5704 5701 5698 5698 5700 5699 5700 5699 5700 5702 5703 5705 5707
5817 5812 5807 5802 5797 5791 5784 5777 5771 5764 5757 5751 5745 5739 5736 5731 5728 5723 5721 5718 5716 5715 5714 5711 5708 5705 5704 5702 5698 5698 5697 5695 5694 5694 5693 5692 5691 5690 5691 5691 5692 5694 5695
5812 5807 5801 5797 5792 5786 5779 5772 5765 5758 5751 5745 5739 5734 5730 5726 5721 5718 5715 5712 5707 5707 5704 5702 5701 5698 5695 5693 5691 5690 5688 5687 5686 5685 5685 5683 5682 5681 5681 5681 5682 5683 5685
5805 5801 5798 5794 5788 5780 5774 5766 5758 5752 5745 5739 5733 5728 5724 5720 5716 5712 5708 5705 5700 5698 5695 5694 5692 5690 5687 5685 5682 5680 5677 5674 5674 5675 5674 5673 5670 5669 5669 5669 5670 5671 5672
5801 5797 5792 5788 5781 5774 5768 5761 5754 5746 5740 5734 5728 5722 5718 5714 5710 5706 5702 5699 5694 5690 5688 5686 5683 5681 5678 5675 5672 5670 5670 5666 5664 5663 5658 5657 5658 5658 5658 5657 5657 5657 5658
5797 5792 5787 5781 5775 5769 5763 5756 5749 5742 5735 5728 5721 5716 5711 5707 5703 5699 5695 5692 5690 5686 5681 5677 5675 5672 5669 5666 5663 5661 5658 5655 5654 5653 5652 5649 5645 5643 5643 5643 5643 5643 5643
5791 5786 5782 5776 5770 5763 5757 5751 5743 5735 5729 5723 5717 5710 5705 5701 5696 5692 5689 5685 5682 5680 5678 5672 5668 5664 5661 5657 5654 5651 5648 5645 5643 5640 5639 5636 5634 5631 5629 5628 5628 5627 5627
5787 5782 5777 5771 5763 5757 5752 5745 5738 5730 5723 5717 5709 5704 5698 5695 5690 5687 5683 5678 5673 5670 5668 5664 5659 5655 5652 5649 5646 5642 5638 5635 5632 5628 5625 5623 5620 5617 5616 5614 5613 5611 5610
5781 5776 5771 5765 5758 5752 5746 5739 5732 5725 5717 5710 5704 5698 5692 5687 5684 5680 5676 5671 5666 5662 5658 5655 5650 5646 5643 5640 5636 5632 5628 5623 5619 5615 5610 5608 5605 5603 5601 5600 5598 5597 5596
5775 5771 5765 5759 5753 5746 5740 5732 5725 5717 5710 5703 5697 5691 5685 5682 5677 5673 5668 5664 5659 5654 5649 5645 5641 5637 5633 5629 5625 5620 5616 5611 5606 5600 5596 5591 5588 5587 5585 5584 5584 5584 5585
5770 5766 5760 5754 5747 5741 5734 5726 5718 5711 5704 5698 5690 5685 5679 5674 5671 5666 5660 5655 5650 5646 5642 5636 5631 5626 5622 5617 5612 5607 5603 5596 5591 5585 5581 5578 5577 5575 5575 5575 5575 5575 5575
5765 5761 5755 5748 5742 5735 5728 5720 5713 5705 5699 5691 5685 5679 5674 5668 5662 5656 5652 5647 5642 5637 5633 5627 5621 5616 5610 5605 5599 5593 5588 5583 5577 5575 5570 5569 5568 5568 5568 5567 5566 5566 5565
5759 5754 5748 5742 5736 5729 5722 5715 5707 5699 5692 5685 5679 5673 5668 5663 5656 5650 5645 5639 5632 5627 5623 5617 5610 5604 5598 5593 5587 5581 5577 5572 5568 5566 5563 5562 5562 5561 5560 5559 5558 5557 5555
5753 5747 5742 5736 5730 5723 5716 5709 5702 5694 5685 5678 5674 5668 5663 5655 5648 5641 5636 5629 5623 5616 5610 5605 5598 5591 5584 5579 5573 5568 5565 5562 5560 5559 5557 5556 5556 5554 5553 5552 5551 5551 5550
5746 5742 5735 5730 5724 5717 5710 5702 5695 5687 5678 5672 5667 5661 5656 5650 5642 5634 5627 5620 5613 5606 5599 5593 5585 5577 5570 5566 5561 5558 5556 5554 5552 5553 5551 5550 5549 5548 5548 5547 5546 5545 5544
5741 5736 5730 5724 5718 5711 5704 5696 5688 5680 5672 5665 5661 5654 5648 5642 5636 5628 5620 5612 5603 5595 5586 5578 5571 5564 5558 5555 5552 5550 5549 5548 5546 5546 5545 5545 5544 5542 5543 5541 5541 5540 5539
5735 5730 5725 5719 5713 5705 5697 5689 5681 5673 5665 5659 5654 5647 5641 5633 5625 5615 5607 5600 5591 5582 5573 5564 5558 5553 5548 5545 5544 5544 5543 5541 5540 5540 5539 5538 5539 5537 5536 5537 5536 5535 5534
Wind_Speed
27 27 30 31 30 31 34 36 37 38 39 37 36 36 36 37 39 40 40 39 37 37 37 37 36 37 38 40 42 45 49 51 52 52 54 54 53 52 51 49 51 54 54
25 28 31 29 29 33 35 36 37 38 37 36 36 36 38 40 39 39 38 37 36 35 35 35 35 36 36 37 39 43 45 46 49 54 56 58 57 56 55 53 51 51 52
27 29 29 29 31 34 35 37 37 37 38 38 37 39 40 41 40 38 36 35 33 31 31 31 32 34 34 35 35 35 39 43 48 49 54 56 59 59 59 59 57 55 54
27 30 26 31 32 35 36 36 37 37 38 37 39 42 43 41 39 35 33 32 28 27 28 28 28 30 31 31 32 32 36 37 35 35 53 53 51 53 57 60 59 59 58
26 27 28 33 34 36 36 37 36 38 39 39 41 43 43 39 34 33 30 28 25 24 23 22 22 23 26 26 27 30 33 29 39 32 46 50 55 55 59 58 53 53 60
21 26 30 33 36 36 36 36 38 39 41 43 44 43 41 35 31 31 29 26 23 24 21 20 19 18 19 23 27 33 45 47 51 47 45 32 23 27 53 55 57 54 54
24 27 31 33 36 36 36 38 39 40 43 44 43 41 35 31 31 32 29 25 21 21 19 18 19 19 18 18 22 29 27 43 45 45 43 40 53 39 31 48 51 56 55
26 30 33 34 35 36 37 39 41 43 44 43 42 39 34 31 27 29 29 25 24 24 22 21 20 16 15 17 17 19 22 22 36 43 42 40 44 45 45 43 41 41 30
28 31 32 34 35 37 39 41 42 43 44 42 41 39 34 32 29 28 27 27 26 25 27 26 25 23 21 18 16 17 16 17 21 23 27 34 31 32 31 43 32 36 34
28 31 33 33 37 39 38 39 42 42 43 42 38 35 33 32 31 30 28 26 27 27 29 29 28 26 25 26 25 21 20 22 22 20 24 27 33 33 34 36 38 40 41
28 30 32 34 37 37 37 39 41 41 41 40 37 34 31 31 30 31 30 29 30 28 27 29 30 30 29 28 29 28 24 26 27 27 28 30 32 32 33 33 34 35 37
28 30 32 34 35 36 38 39 41 42 41 39 36 33 32 31 31 30 30 29 31 30 30 29 29 31 31 32 32 32 32 31 32 32 32 33 35 37 39 39 39 39 40
29 29 30 32 34 36 37 40 41 42 40 39 37 34 31 30 29 28 27 28 29 29 30 29 30 30 30 31 34 34 36 39 37 37 36 37 37 39 41 42 43 44 45
26 28 31 34 37 38 38 40 41 41 41 39 37 34 32 30 30 29 28 27 28 29 28 28 29 28 30 33 36 36 35 37 38 38 40 41 41 42 44 45 46 47 48
27 30 33 36 38 38 38 40 41 39 38 37 37 36 33 32 31 29 27 26 24 25 29 31 31 33 34 34 34 34 34 36 37 37 39 41 44 46 46 47 48 50 51
28 30 33 35 36 38 39 40 40 38 39 38 37 36 34 32 31 30 28 28 27 26 26 30 33 34 34 33 33 34 35 36 38 40 40 42 44 46 48 49 50 52 54
28 29 32 34 36 37 39 40 38 38 39 40 37 36 32 30 29 29 28 28 30 31 31 33 34 34 31 31 32 34 35 38 39 41 42 43 45 46 48 49 50 52 54
27 28 32 34 35 37 39 39 38 38 40 40 37 35 34 30 29 29 29 31 32 32 32 31 31 31 32 33 33 34 36 39 40 43 45 45 47 48 49 49 50 50 49
26 28 32 35 36 37 38 39 39 40 41 38 35 34 33 31 30 30 31 30 32 30 30 31 32 34 35 34 35 37 38 40 43 45 44 44 44 42 42 38 33 29 30
25 28 32 35 36 36 37 38 39 40 40 37 35 34 32 32 31 30 31 32 30 31 31 34 36 36 37 39 40 41 42 45 46 41 33 33 30 27 22 24 26 27 28
24 28 32 35 36 36 37 39 40 40 39 37 35 34 33 33 34 35 34 32 33 34 35 36 38 39 42 42 43 45 45 44 39 29 29 21 19 19 21 23 25 28 31
26 29 34 35 36 36 37 39 40 39 39 37 34 34 34 34 35 35 35 36 38 40 38 39 42 44 45 46 46 45 42 35 28 25 20 16 18 19 21 22 24 23 22
26 30 34 36 36 36 37 39 40 40 40 39 35 34 33 35 36 39 38 40 42 44 45 45 45 47 48 46 43 39 32 25 24 17 18 18 18 17 19 17 16 16 15
26 30 34 36 37 37 39 39 42 40 40 39 34 33 32 33 36 38 40 42 44 45 47 49 49 47 43 38 34 29 23 23 19 13 16 18 16 16 14 14 14 15 16
27 31 34 36 37 37 39 40 42 40 38 38 37 35 36 38 38 38 40 42 45 48 50 49 44 40 36 33 26 20 19 18 16 14 14 14 14 17 12 14 15 16 17
28 33 35 36 37 37 39 41 43 39 38 38 37 36 38 40 43 45 47 48 50 51 49 45 40 32 27 21 14 15 19 16 12 12 13 14 11 15 17 14 15 17 18
Wind_Direction
317 318 316 317 317 316 316 315 312 313 311 313 310 307 306 305 304 302 300 298 295 291 285 279 271 268 266 264 261 260 259 259 257 253 253 250 248 247 247 246 245 246 246
315 313 314 314 315 315 314 315 315 315 314 313 311 309 309 307 304 302 301 299 294 290 286 280 272 266 266 267 266 265 263 262 260 256 252 250 249 247 247 247 247 246 247
311 312 313 313 313 314 316 318 318 316 315 314 312 311 310 308 305 305 305 299 294 292 289 284 279 271 267 266 268 267 267 262 258 265 253 250 249 249 247 246 246 247 247
309 310 311 311 315 316 320 319 318 317 316 316 314 314 311 309 307 308 305 299 300 296 291 290 288 278 267 267 269 268 267 254 236 215 258 246 245 247 247 246 246 246 246
313 307 314 315 319 321 322 320 321 319 317 317 315 312 310 309 307 305 299 298 299 297 302 300 303 288 275 273 271 268 258 258 238 220 211 235 235 244 243 245 244 242 243
311 309 316 319 321 324 324 324 323 321 320 319 315 312 310 308 302 299 295 294 293 295 300 304 308 314 295 284 277 279 263 246 254 250 254 237 227 247 237 241 243 244 242
311 315 319 325 326 326 325 326 324 324 322 318 316 315 311 306 300 299 295 293 292 290 293 302 309 314 319 308 282 282 283 251 248 240 243 247 244 254 231 236 242 246 243
313 320 328 330 328 327 328 328 327 326 321 318 318 316 310 304 296 293 292 291 291 289 288 288 288 294 300 306 311 295 295 276 258 254 248 255 252 252 261 245 251 242 254
320 327 332 332 332 331 333 331 328 326 321 321 319 317 312 305 299 291 288 287 285 288 288 292 294 294 299 300 299 297 290 271 271 268 264 253 260 266 269 266 265 265 261
324 332 334 337 335 336 333 330 328 325 324 323 321 319 315 308 302 296 290 287 285 286 289 290 292 292 294 301 300 294 290 289 292 283 267 261 262 264 263 259 257 256 253
328 333 338 341 336 334 333 331 329 326 325 323 321 320 317 312 305 300 297 294 287 286 286 288 291 292 291 292 292 295 294 288 283 278 276 273 270 268 265 261 259 257 257
331 337 341 338 334 333 334 331 330 328 325 321 321 322 318 313 309 304 300 297 295 294 292 289 290 288 288 288 288 290 289 285 282 282 280 273 269 268 268 266 264 262 260
334 338 339 335 335 336 336 334 329 327 325 323 322 322 319 316 313 308 304 300 297 294 290 289 287 287 286 285 285 286 286 286 284 283 279 274 273 272 269 268 267 265 263
329 334 335 336 340 339 337 333 329 327 326 325 323 320 319 316 312 311 309 306 304 301 298 297 295 292 290 291 289 286 285 282 281 281 282 280 275 273 272 271 269 268 267
325 330 334 337 339 337 336 331 329 329 328 325 322 321 319 318 314 311 310 308 305 302 302 300 297 295 293 291 289 288 287 285 282 277 275 274 275 276 273 272 271 271 270
324 330 334 334 334 337 336 332 330 329 327 327 322 318 319 318 316 314 313 310 305 302 298 296 296 296 295 294 294 292 289 286 284 283 280 278 275 273 273 273 273 272 270
323 333 333 331 334 336 334 332 331 329 328 326 325 319 318 317 314 312 310 307 307 307 305 303 301 298 298 297 295 293 291 288 286 283 279 276 274 273 273 273 273 273 274
326 332 330 331 332 333 332 334 333 331 328 327 325 321 319 318 314 312 308 305 306 306 304 303 300 299 299 297 296 295 294 293 291 288 284 281 276 274 273 271 271 271 270
329 327 327 331 331 332 334 334 335 332 329 328 323 320 320 317 314 312 309 307 308 309 308 306 304 302 302 300 299 300 298 297 298 292 285 281 279 278 276 274 269 263 263
327 323 326 328 331 331 334 335 334 332 329 325 322 320 318 314 314 313 309 311 311 310 309 307 304 305 303 302 301 301 302 301 300 296 287 280 281 273 269 265 267 267 269
322 319 326 327 332 331 335 336 335 332 327 323 321 320 317 315 315 314 312 312 312 311 308 306 305 304 304 304 303 302 303 302 300 295 290 283 273 273 274 274 275 276 277
317 320 327 331 329 331 335 336 333 330 326 322 319 319 317 316 313 312 314 314 312 309 309 305 305 305 303 303 301 299 298 297 293 294 279 273 275 279 280 279 280 278 277
316 323 325 332 328 328 331 334 333 329 326 325 321 318 319 316 314 315 315 312 310 309 309 308 306 304 302 300 298 297 295 289 290 278 279 282 286 281 280 276 275 276 275
318 320 324 329 327 326 327 331 332 330 328 325 319 320 318 313 311 311 310 309 308 307 307 306 306 304 301 299 296 292 285 289 282 271 276 284 283 283 278 276 274 271 276
317 319 322 327 325 324 327 328 329 330 327 322 323 323 320 316 312 310 309 308 308 309 308 307 306 303 299 295 292 284 286 286 276 273 279 281 274 276 273 272 278 273 279
315 318 323 326 324 323 325 325 328 328 327 324 322 321 321 317 317 316 314 313 313 311 311 310 308 305 299 293 287 289 297 281 270 279 290 292 276 271 281 276 275 277 281